Flag for Germany Weather past 2 weeks in Wismar, Mecklenburg-Western Pomerania, Germany

Now
34 °F

Snow. Low clouds.


Feels Like: 27 °F
Forecast: 35 / 42 °F
Wind: 8 mph from West

Location: Schwerin

Current Time: Mar 3, 2015 at 5:07:11 AM

Latest Report: Mar 3, 2015 at 3:00 AM


Visibility: 2 mi

Pressure: 29.73 "Hg

Humidity: 95%

Dew point: 32 °F

Location of WismarLocation

Historic Weather in Wismar — Graph

°F

Wismar temperature yesterday

Maximum temperature yesterday: 42 °F (at 5:00 PM)
Minimum temperature yesterday: 35 °F (at 1:00 AM)
Average temperature yesterday: 38 °F

Past Weeks' High & Low Weather Summary

 TemperatureHumidityPressure
High49 °F (Feb 26, 3:00 PM)100% (Feb 18, 12:00 AM)30.69 "Hg (Feb 18, 12:00 AM)
Low27 °F (Feb 17, 8:00 AM)45% (Feb 26, 5:00 PM)29.23 "Hg (Feb 21, 1:00 PM)
Average37 °F83%29.89 "Hg
* Reported Feb 16 3:00 AM — Mar 3 3:00 AM, Wismar, Weather by CustomWeather, © 2015

Note: Actual official high and low records may vary slightly from our data, if they occured in-between our weather recording intervals... More about our weather records

Advertising

Wismar weather history for previous 24 hours

 ConditionsComfort  
Time TempWeatherWind HumidityBarometerVisibility
3:00 AM
Tue, Mar 3
34 °FSnow. Low clouds.8 mph95%29.73 "Hg2 mi
2:00 AM35 °FDrizzle. Overcast.8 mph89%29.72 "Hg9 mi
1:00 AM35 °FOvercast.8 mph85%29.71 "Hg11 mi
12:00 AM35 °FOvercast.9 mph87%29.69 "Hg11 mi
11:00 PM
Mon, Mar 2
37 °FPassing clouds.8 mph80%29.67 "Hg19 mi
10:00 PM37 °FOvercast.7 mph78%29.65 "Hg19 mi
9:00 PM36 °FPassing clouds.5 mph77%29.63 "Hg16 mi
8:00 PM38 °FPassing clouds.5 mph73%29.61 "Hg19 mi
7:00 PM40 °FPassing clouds.7 mph67%29.59 "Hg22 mi
6:00 PM41 °FPassing clouds.7 mph67%29.56 "Hg22 mi
5:00 PM42 °FPartly sunny.9 mph67%29.54 "Hg17 mi
4:00 PM42 °FOvercast.10 mph73%29.50 "Hg12 mi
3:00 PM41 °FOvercast.10 mph78%29.47 "Hg16 mi
2:00 PM40 °FOvercast.10 mph81%29.44 "Hg19 mi
1:00 PM36 °FLight rain. Low clouds.12 mph92%29.44 "Hg4 mi
12:00 PM37 °FLight rain. Overcast.10 mph91%29.41 "Hg7 mi
11:00 AM41 °FOvercast.13 mph75%29.38 "Hg19 mi
10:00 AM40 °FOvercast.13 mph78%29.35 "Hg16 mi
9:00 AM39 °FLight rain. Overcast.12 mph87%29.35 "Hg3 mi
8:00 AM39 °FOvercast.10 mph89%29.29 "Hg15 mi
7:00 AM39 °FOvercast.7 mph93%29.26 "Hg12 mi
6:00 AM38 °FDrizzle. Overcast.2 mph97%29.29 "Hg9 mi
5:00 AM38 °FRain. Overcast.3 mph95%29.32 "Hg2 mi
Weather by CustomWeather, © 2015

See weather overviewHow to use our weather pages